Year,Month,Day,Hour,Minute,Value (Times are PST for temperature in C)
2015,08,22,00,00,15.60
2015,08,22,00,01,15.60
2015,08,22,00,02,15.60
2015,08,22,00,03,15.60
2015,08,22,00,04,15.50
2015,08,22,00,05,15.50
2015,08,22,00,06,15.40
2015,08,22,00,07,15.40
2015,08,22,00,08,15.40
2015,08,22,00,09,15.30
2015,08,22,00,10,15.30
2015,08,22,00,11,15.30
2015,08,22,00,12,15.30
2015,08,22,00,13,15.20
2015,08,22,00,14,15.20
2015,08,22,00,15,15.20
2015,08,22,00,16,15.20
2015,08,22,00,17,15.10
2015,08,22,00,18,15.10
2015,08,22,00,19,15.10
2015,08,22,00,20,15.10
2015,08,22,00,21,15.10
2015,08,22,00,22,15.00
2015,08,22,00,23,15.00
2015,08,22,00,24,15.00
2015,08,22,00,25,15.00
2015,08,22,00,26,14.90
2015,08,22,00,27,14.90
2015,08,22,00,28,14.90
2015,08,22,00,29,14.90
2015,08,22,00,30,14.90
2015,08,22,00,31,14.80
2015,08,22,00,32,14.80
2015,08,22,00,33,14.80
2015,08,22,00,34,14.80
2015,08,22,00,35,14.80
2015,08,22,00,36,14.80
2015,08,22,00,37,14.70
2015,08,22,00,38,14.70
2015,08,22,00,39,14.70
2015,08,22,00,40,14.70
2015,08,22,00,41,14.60
2015,08,22,00,42,14.60
2015,08,22,00,43,14.50
2015,08,22,00,44,14.50
2015,08,22,00,45,14.50
2015,08,22,00,46,14.40
2015,08,22,00,47,14.40
2015,08,22,00,48,14.30
2015,08,22,00,49,14.30
2015,08,22,00,50,14.30
2015,08,22,00,51,14.30
2015,08,22,00,52,14.30
2015,08,22,00,53,14.30
2015,08,22,00,54,14.20
2015,08,22,00,55,14.20
2015,08,22,00,56,14.20
2015,08,22,00,57,14.20
2015,08,22,00,58,14.10
2015,08,22,00,59,14.10
2015,08,22,01,00,14.10
2015,08,22,01,01,14.10
2015,08,22,01,02,14.00
2015,08,22,01,03,14.00
2015,08,22,01,04,14.00
2015,08,22,01,05,14.00
2015,08,22,01,06,13.90
2015,08,22,01,07,13.90
2015,08,22,01,08,13.90
2015,08,22,01,09,13.90
2015,08,22,01,10,13.80
2015,08,22,01,11,13.80
2015,08,22,01,12,13.80
2015,08,22,01,13,13.80
2015,08,22,01,14,13.80
2015,08,22,01,15,13.70
2015,08,22,01,16,13.70
2015,08,22,01,17,13.70
2015,08,22,01,18,13.70
2015,08,22,01,19,13.70
2015,08,22,01,20,13.70
2015,08,22,01,21,13.60
2015,08,22,01,22,13.60
2015,08,22,01,23,13.60
2015,08,22,01,24,13.60
2015,08,22,01,25,13.60
2015,08,22,01,26,13.60
2015,08,22,01,27,13.50
2015,08,22,01,28,13.50
2015,08,22,01,29,13.50
2015,08,22,01,30,13.40
2015,08,22,01,31,13.40
2015,08,22,01,32,13.30
2015,08,22,01,33,13.30
2015,08,22,01,34,13.30
2015,08,22,01,35,13.30
2015,08,22,01,36,13.30
2015,08,22,01,37,13.30
2015,08,22,01,38,13.30
2015,08,22,01,39,13.20
2015,08,22,01,40,13.20
2015,08,22,01,41,13.20
2015,08,22,01,42,13.20
2015,08,22,01,43,13.20
2015,08,22,01,44,13.20
2015,08,22,01,45,13.20
2015,08,22,01,46,13.20
2015,08,22,01,47,13.10
2015,08,22,01,48,13.10
2015,08,22,01,49,13.10
2015,08,22,01,50,13.10
2015,08,22,01,51,13.00
2015,08,22,01,52,13.00
2015,08,22,01,53,13.00
2015,08,22,01,54,13.00
2015,08,22,01,55,12.90
2015,08,22,01,56,12.90
2015,08,22,01,57,12.90
2015,08,22,01,58,12.90
2015,08,22,01,59,12.90
2015,08,22,02,00,12.90
2015,08,22,02,01,12.80
2015,08,22,02,02,12.80
2015,08,22,02,03,12.80
2015,08,22,02,04,12.80
2015,08,22,02,05,12.80
2015,08,22,02,06,12.80
2015,08,22,02,07,12.80
2015,08,22,02,08,12.70
2015,08,22,02,09,12.70
2015,08,22,02,10,12.70
2015,08,22,02,11,12.70
2015,08,22,02,12,12.70
2015,08,22,02,13,12.70
2015,08,22,02,14,12.70
2015,08,22,02,15,12.60
2015,08,22,02,16,12.60
2015,08,22,02,17,12.60
2015,08,22,02,18,12.60
2015,08,22,02,19,12.60
2015,08,22,02,20,12.60
2015,08,22,02,21,12.60
2015,08,22,02,22,12.50
2015,08,22,02,23,12.50
2015,08,22,02,24,12.50
2015,08,22,02,25,12.40
2015,08,22,02,26,12.40
2015,08,22,02,27,12.40
2015,08,22,02,28,12.40
2015,08,22,02,29,12.40
2015,08,22,02,30,12.40
2015,08,22,02,31,12.40
2015,08,22,02,32,12.30
2015,08,22,02,33,12.30
2015,08,22,02,34,12.30
2015,08,22,02,35,12.30
2015,08,22,02,36,12.30
2015,08,22,02,37,12.30
2015,08,22,02,38,12.30
2015,08,22,02,39,12.30
2015,08,22,02,40,12.30
2015,08,22,02,41,12.20
2015,08,22,02,42,12.20
2015,08,22,02,43,12.20
2015,08,22,02,44,12.20
2015,08,22,02,45,12.20
2015,08,22,02,46,12.20
2015,08,22,02,47,12.10
2015,08,22,02,48,12.10
2015,08,22,02,49,12.10
2015,08,22,02,50,12.10
2015,08,22,02,51,12.10
2015,08,22,02,52,12.10
2015,08,22,02,53,12.10
2015,08,22,02,54,12.10
2015,08,22,02,55,12.00
2015,08,22,02,56,12.00
2015,08,22,02,57,12.00
2015,08,22,02,58,12.00
2015,08,22,02,59,12.00
2015,08,22,03,00,12.00
2015,08,22,03,01,12.00
2015,08,22,03,02,12.00
2015,08,22,03,03,11.90
2015,08,22,03,04,11.90
2015,08,22,03,05,11.90
2015,08,22,03,06,11.90
2015,08,22,03,07,11.90
2015,08,22,03,08,11.90
2015,08,22,03,09,11.90
2015,08,22,03,10,11.90
2015,08,22,03,11,11.90
2015,08,22,03,12,11.90
2015,08,22,03,13,11.90
2015,08,22,03,14,11.90
2015,08,22,03,15,11.90
2015,08,22,03,16,11.90
2015,08,22,03,17,11.90
2015,08,22,03,18,11.80
2015,08,22,03,19,11.80
2015,08,22,03,20,11.80
2015,08,22,03,21,11.80
2015,08,22,03,22,11.80
2015,08,22,03,23,11.80
2015,08,22,03,24,11.80
2015,08,22,03,25,11.80
2015,08,22,03,26,11.80
2015,08,22,03,27,11.80
2015,08,22,03,28,11.80
2015,08,22,03,29,11.80
2015,08,22,03,30,11.80
2015,08,22,03,31,11.80
2015,08,22,03,32,11.80
2015,08,22,03,33,11.70
2015,08,22,03,34,11.70
2015,08,22,03,35,11.70
2015,08,22,03,36,11.70
2015,08,22,03,37,11.70
2015,08,22,03,38,11.70
2015,08,22,03,39,11.70
2015,08,22,03,40,11.70
2015,08,22,03,41,11.70
2015,08,22,03,42,11.70
2015,08,22,03,43,11.70
2015,08,22,03,44,11.70
2015,08,22,03,45,11.70
2015,08,22,03,46,11.80
2015,08,22,03,47,11.80
2015,08,22,03,48,11.80
2015,08,22,03,49,11.80
2015,08,22,03,50,11.80
2015,08,22,03,51,11.80
2015,08,22,03,52,11.80
2015,08,22,03,53,11.80
2015,08,22,03,54,11.80
2015,08,22,03,55,11.80
2015,08,22,03,56,11.80
2015,08,22,03,57,11.80
2015,08,22,03,58,11.80
2015,08,22,03,59,11.80
2015,08,22,04,00,11.80
2015,08,22,04,01,11.80
2015,08,22,04,02,11.80
2015,08,22,04,03,11.80
2015,08,22,04,04,11.70
2015,08,22,04,05,11.70
2015,08,22,04,06,11.70
2015,08,22,04,07,11.70
2015,08,22,04,08,11.70
2015,08,22,04,09,11.70
2015,08,22,04,10,11.80
2015,08,22,04,11,11.80
2015,08,22,04,12,11.80
2015,08,22,04,13,11.80
2015,08,22,04,14,11.80
2015,08,22,04,15,11.80
2015,08,22,04,16,11.80
2015,08,22,04,17,11.80
2015,08,22,04,18,11.80
2015,08,22,04,19,11.80
2015,08,22,04,20,11.80
2015,08,22,04,21,11.90
2015,08,22,04,22,11.90
2015,08,22,04,23,11.90
2015,08,22,04,24,11.90
2015,08,22,04,25,11.90
2015,08,22,04,26,11.90
2015,08,22,04,27,12.00
2015,08,22,04,28,12.00
2015,08,22,04,29,12.00
2015,08,22,04,30,12.10
2015,08,22,04,31,12.10
2015,08,22,04,32,12.10
2015,08,22,04,33,12.10
2015,08,22,04,34,12.10
2015,08,22,04,35,12.10
2015,08,22,04,36,12.10
2015,08,22,04,37,12.10
2015,08,22,04,38,12.10
2015,08,22,04,39,12.00
2015,08,22,04,40,12.00
2015,08,22,04,41,12.00
2015,08,22,04,42,12.00
2015,08,22,04,43,12.00
2015,08,22,04,44,12.00
2015,08,22,04,45,12.00
2015,08,22,04,46,12.00
2015,08,22,04,47,12.00
2015,08,22,04,48,12.00
2015,08,22,04,49,12.10
2015,08,22,04,50,12.10
2015,08,22,04,51,12.10
2015,08,22,04,52,12.10
2015,08,22,04,53,12.10
2015,08,22,04,54,12.10
2015,08,22,04,55,12.10
2015,08,22,04,56,12.10
2015,08,22,04,57,12.20
2015,08,22,04,58,12.20
2015,08,22,04,59,12.20
2015,08,22,05,00,12.20
2015,08,22,05,01,12.20
2015,08,22,05,02,12.20
2015,08,22,05,03,12.20
2015,08,22,05,04,12.30
2015,08,22,05,05,12.30
2015,08,22,05,06,12.30
2015,08,22,05,07,12.30
2015,08,22,05,08,12.30
2015,08,22,05,09,12.30
2015,08,22,05,10,12.30
2015,08,22,05,11,12.30
2015,08,22,05,12,12.30
2015,08,22,05,13,12.30
2015,08,22,05,14,12.30
2015,08,22,05,15,12.30
2015,08,22,05,16,12.30
2015,08,22,05,17,12.30
2015,08,22,05,18,12.30
2015,08,22,05,19,12.30
2015,08,22,05,20,12.30
2015,08,22,05,21,12.30
2015,08,22,05,22,12.30
2015,08,22,05,23,12.30
2015,08,22,05,24,12.30
2015,08,22,05,25,12.30
2015,08,22,05,26,12.40
2015,08,22,05,27,12.40
2015,08,22,05,28,12.40
2015,08,22,05,29,12.40
2015,08,22,05,30,12.40
2015,08,22,05,31,12.40
2015,08,22,05,32,12.40
2015,08,22,05,33,12.40
2015,08,22,05,34,12.40
2015,08,22,05,35,12.40
2015,08,22,05,36,12.40
2015,08,22,05,37,12.40
2015,08,22,05,38,12.40
2015,08,22,05,39,12.40
2015,08,22,05,40,12.40
2015,08,22,05,41,12.50
2015,08,22,05,42,12.50
2015,08,22,05,43,12.50
2015,08,22,05,44,12.50
2015,08,22,05,45,12.50
2015,08,22,05,46,12.50
2015,08,22,05,47,12.50
2015,08,22,05,48,12.50
2015,08,22,05,49,12.50
2015,08,22,05,50,12.50
2015,08,22,05,51,12.50
2015,08,22,05,52,12.60
2015,08,22,05,53,12.60
2015,08,22,05,54,12.60
2015,08,22,05,55,12.60
2015,08,22,05,56,12.60
2015,08,22,05,57,12.60
2015,08,22,05,58,12.60
2015,08,22,05,59,12.60
2015,08,22,06,00,12.60
2015,08,22,06,01,12.60
2015,08,22,06,02,12.60
2015,08,22,06,03,12.60
2015,08,22,06,04,12.60
2015,08,22,06,05,12.60
2015,08,22,06,06,12.60
2015,08,22,06,07,12.60
2015,08,22,06,08,12.60
2015,08,22,06,09,12.60
2015,08,22,06,10,12.60
2015,08,22,06,11,12.60
2015,08,22,06,12,12.60
2015,08,22,06,13,12.60
2015,08,22,06,14,12.60
2015,08,22,06,15,12.60
2015,08,22,06,16,12.60
2015,08,22,06,17,12.60
2015,08,22,06,18,12.60
2015,08,22,06,19,12.60
2015,08,22,06,20,12.60
2015,08,22,06,21,12.60
2015,08,22,06,22,12.60
2015,08,22,06,23,12.60
2015,08,22,06,24,12.60
2015,08,22,06,25,12.60
2015,08,22,06,26,12.60
2015,08,22,06,27,12.60
2015,08,22,06,28,12.60
2015,08,22,06,29,12.60
2015,08,22,06,30,12.70
2015,08,22,06,31,12.70
2015,08,22,06,32,12.70
2015,08,22,06,33,12.70
2015,08,22,06,34,12.70
2015,08,22,06,35,12.70
2015,08,22,06,36,12.70
2015,08,22,06,37,12.70
2015,08,22,06,38,12.70
2015,08,22,06,39,12.70
2015,08,22,06,40,12.70
2015,08,22,06,41,12.70
2015,08,22,06,42,12.70
2015,08,22,06,43,12.70
2015,08,22,06,44,12.70
2015,08,22,06,45,12.70
2015,08,22,06,46,12.70
2015,08,22,06,47,12.70
2015,08,22,06,48,12.70
2015,08,22,06,49,12.70
2015,08,22,06,50,12.70
2015,08,22,06,51,12.70
2015,08,22,06,52,12.70
2015,08,22,06,53,12.70
2015,08,22,06,54,12.70
2015,08,22,06,55,12.70
2015,08,22,06,56,12.70
2015,08,22,06,57,12.70
2015,08,22,06,58,12.70
2015,08,22,06,59,12.70
2015,08,22,07,00,12.70
2015,08,22,07,01,12.70
2015,08,22,07,02,12.70
2015,08,22,07,03,12.70
2015,08,22,07,04,12.70
2015,08,22,07,05,12.70
2015,08,22,07,06,12.70
2015,08,22,07,07,12.70
2015,08,22,07,08,12.70
2015,08,22,07,09,12.70
2015,08,22,07,10,12.70
2015,08,22,07,11,12.70
2015,08,22,07,12,12.70
2015,08,22,07,13,12.70
2015,08,22,07,14,12.70
2015,08,22,07,15,12.70
2015,08,22,07,16,12.70
2015,08,22,07,17,12.70
2015,08,22,07,18,12.70
2015,08,22,07,19,12.70
2015,08,22,07,20,12.80
2015,08,22,07,21,12.80
2015,08,22,07,22,12.80
2015,08,22,07,23,12.80
2015,08,22,07,24,12.80
2015,08,22,07,25,12.80
2015,08,22,07,26,12.80
2015,08,22,07,27,12.90
2015,08,22,07,28,12.90
2015,08,22,07,29,12.90
2015,08,22,07,30,12.90
2015,08,22,07,31,12.90
2015,08,22,07,32,12.90
2015,08,22,07,33,12.90
2015,08,22,07,34,12.90
2015,08,22,07,35,13.00
2015,08,22,07,36,13.00
2015,08,22,07,37,13.00
2015,08,22,07,38,13.00
2015,08,22,07,39,13.00
2015,08,22,07,40,13.00
2015,08,22,07,41,13.00
2015,08,22,07,42,13.00
2015,08,22,07,43,13.00
2015,08,22,07,44,13.00
2015,08,22,07,45,13.00
2015,08,22,07,46,13.00
2015,08,22,07,47,13.00
2015,08,22,07,48,13.00
2015,08,22,07,49,13.10
2015,08,22,07,50,13.10
2015,08,22,07,51,13.10
2015,08,22,07,52,13.10
2015,08,22,07,53,13.20
2015,08,22,07,54,13.20
2015,08,22,07,55,13.30
2015,08,22,07,56,13.40
2015,08,22,07,57,13.50
2015,08,22,07,58,13.60
2015,08,22,07,59,13.70
2015,08,22,08,00,13.80
2015,08,22,08,01,13.90
2015,08,22,08,02,14.00
2015,08,22,08,03,14.10
2015,08,22,08,04,14.20
2015,08,22,08,05,14.30
2015,08,22,08,06,14.30
2015,08,22,08,07,14.50
2015,08,22,08,08,14.50
2015,08,22,08,09,14.60
2015,08,22,08,10,14.70
2015,08,22,08,11,14.70
2015,08,22,08,12,14.80
2015,08,22,08,13,14.80
2015,08,22,08,14,14.80
2015,08,22,08,15,14.80
2015,08,22,08,16,14.80
2015,08,22,08,17,14.80
2015,08,22,08,18,14.90
2015,08,22,08,19,14.90
2015,08,22,08,20,14.90
2015,08,22,08,21,14.80
2015,08,22,08,22,14.80
2015,08,22,08,23,14.80
2015,08,22,08,24,14.80
2015,08,22,08,25,14.80
2015,08,22,08,26,14.80
2015,08,22,08,27,14.90
2015,08,22,08,28,14.90
2015,08,22,08,29,15.00
2015,08,22,08,30,15.10
2015,08,22,08,31,15.10
2015,08,22,08,32,15.20
2015,08,22,08,33,15.30
2015,08,22,08,34,15.40
2015,08,22,08,35,15.50
2015,08,22,08,36,15.60
2015,08,22,08,37,15.70
2015,08,22,08,38,15.80
2015,08,22,08,39,15.90
2015,08,22,08,40,16.00
2015,08,22,08,41,16.10
2015,08,22,08,42,16.10
2015,08,22,08,43,16.20
2015,08,22,08,44,16.20
2015,08,22,08,45,16.30
2015,08,22,08,46,16.40
2015,08,22,08,47,16.40
2015,08,22,08,48,16.60
2015,08,22,08,49,16.70
2015,08,22,08,50,16.80
2015,08,22,08,51,16.90
2015,08,22,08,52,17.00
2015,08,22,08,53,17.20
2015,08,22,08,54,17.20
2015,08,22,08,55,17.30
2015,08,22,08,56,17.30
2015,08,22,08,57,17.30
2015,08,22,08,58,17.20
2015,08,22,08,59,17.20
2015,08,22,09,00,17.20
2015,08,22,09,01,17.10
2015,08,22,09,02,17.10
2015,08,22,09,03,17.10
2015,08,22,09,04,17.00
2015,08,22,09,05,17.00
2015,08,22,09,06,17.00
2015,08,22,09,07,17.00
2015,08,22,09,08,17.00
2015,08,22,09,09,17.00
2015,08,22,09,10,17.00
2015,08,22,09,11,17.00
2015,08,22,09,12,17.10
2015,08,22,09,13,17.10
2015,08,22,09,14,17.30
2015,08,22,09,15,17.40
2015,08,22,09,16,17.50
2015,08,22,09,17,17.60
2015,08,22,09,18,17.70
2015,08,22,09,19,17.70
2015,08,22,09,20,17.70
2015,08,22,09,21,17.80
2015,08,22,09,22,17.80
2015,08,22,09,23,17.80
2015,08,22,09,24,17.80
2015,08,22,09,25,17.80
2015,08,22,09,26,17.80
2015,08,22,09,27,17.80
2015,08,22,09,28,17.70
2015,08,22,09,29,17.70
2015,08,22,09,30,17.70
2015,08,22,09,31,17.70
2015,08,22,09,32,17.70
2015,08,22,09,33,17.70
2015,08,22,09,34,17.70
2015,08,22,09,35,17.70
2015,08,22,09,36,17.70
2015,08,22,09,37,17.80
2015,08,22,09,38,17.80
2015,08,22,09,39,17.80
2015,08,22,09,40,17.80
2015,08,22,09,41,17.80
2015,08,22,09,42,17.90
2015,08,22,09,43,17.90
2015,08,22,09,44,17.90
2015,08,22,09,45,17.90
2015,08,22,09,46,17.90
2015,08,22,09,47,17.90
2015,08,22,09,48,17.90
2015,08,22,09,49,17.90
2015,08,22,09,50,18.00
2015,08,22,09,51,18.00
2015,08,22,09,52,18.00
2015,08,22,09,53,18.10
2015,08,22,09,54,18.10
2015,08,22,09,55,18.10
2015,08,22,09,56,18.10
2015,08,22,09,57,18.20
2015,08,22,09,58,18.20
2015,08,22,09,59,18.30
2015,08,22,10,00,18.30
2015,08,22,10,01,18.40
2015,08,22,10,02,18.50
2015,08,22,10,03,18.60
2015,08,22,10,04,18.70
2015,08,22,10,05,18.80
2015,08,22,10,06,18.90
2015,08,22,10,07,19.00
2015,08,22,10,08,19.10
2015,08,22,10,09,19.20
2015,08,22,10,10,19.20
2015,08,22,10,11,19.30
2015,08,22,10,12,19.30
2015,08,22,10,13,19.30
2015,08,22,10,14,19.30
2015,08,22,10,15,19.30
2015,08,22,10,16,19.30
2015,08,22,10,17,19.30
2015,08,22,10,18,19.40
2015,08,22,10,19,19.40
2015,08,22,10,20,19.50
2015,08,22,10,21,19.50
2015,08,22,10,22,19.60
2015,08,22,10,23,19.70
2015,08,22,10,24,19.80
2015,08,22,10,25,19.80
2015,08,22,10,26,19.90
2015,08,22,10,27,19.90
2015,08,22,10,28,19.90
2015,08,22,10,29,19.80
2015,08,22,10,30,19.80
2015,08,22,10,31,19.80
2015,08,22,10,32,19.70
2015,08,22,10,33,19.70
2015,08,22,10,34,19.70
2015,08,22,10,35,19.70
2015,08,22,10,36,19.70
2015,08,22,10,37,19.80
2015,08,22,10,38,19.80
2015,08,22,10,39,19.80
2015,08,22,10,40,19.90
2015,08,22,10,41,19.90
2015,08,22,10,42,20.00
2015,08,22,10,43,20.10
2015,08,22,10,44,20.10
2015,08,22,10,45,20.20
2015,08,22,10,46,20.30
2015,08,22,10,47,20.40
2015,08,22,10,48,20.40
2015,08,22,10,49,20.50
2015,08,22,10,50,20.50
2015,08,22,10,51,20.60
2015,08,22,10,52,20.60
2015,08,22,10,53,20.70
2015,08,22,10,54,20.70
2015,08,22,10,55,20.70
2015,08,22,10,56,20.70
2015,08,22,10,57,20.70
2015,08,22,10,58,20.70
2015,08,22,10,59,20.70
2015,08,22,11,00,20.70
2015,08,22,11,01,20.70
2015,08,22,11,02,20.70
2015,08,22,11,03,20.70
2015,08,22,11,04,20.70
2015,08,22,11,05,20.70
2015,08,22,11,06,20.70
2015,08,22,11,07,20.80
2015,08,22,11,08,20.80
2015,08,22,11,09,20.90
2015,08,22,11,10,21.00
2015,08,22,11,11,21.00
2015,08,22,11,12,21.20
2015,08,22,11,13,21.30
2015,08,22,11,14,21.40
2015,08,22,11,15,21.60
2015,08,22,11,16,21.70
2015,08,22,11,17,21.90
2015,08,22,11,18,22.00
2015,08,22,11,19,22.20
2015,08,22,11,20,22.30
2015,08,22,11,21,22.30
2015,08,22,11,22,22.40
2015,08,22,11,23,22.50
2015,08,22,11,24,22.60
2015,08,22,11,25,22.60
2015,08,22,11,26,22.70
2015,08,22,11,27,22.60
2015,08,22,11,28,22.60
2015,08,22,11,29,22.50
2015,08,22,11,30,22.50
2015,08,22,11,31,22.50
2015,08,22,11,32,22.60
2015,08,22,11,33,22.60
2015,08,22,11,34,22.70
2015,08,22,11,35,22.70
2015,08,22,11,36,22.80
2015,08,22,11,37,22.80
2015,08,22,11,38,22.80
2015,08,22,11,39,22.80
2015,08,22,11,40,22.80
2015,08,22,11,41,22.90
2015,08,22,11,42,22.90
2015,08,22,11,43,22.90
2015,08,22,11,44,23.00
2015,08,22,11,45,23.10
2015,08,22,11,46,23.20
2015,08,22,11,47,23.20
2015,08,22,11,48,23.30
2015,08,22,11,49,23.30
2015,08,22,11,50,23.40
2015,08,22,11,51,23.40
2015,08,22,11,52,23.40
2015,08,22,11,53,23.40
2015,08,22,11,54,23.40
2015,08,22,11,55,23.40
2015,08,22,11,56,23.40
2015,08,22,11,57,23.40
2015,08,22,11,58,23.40
2015,08,22,11,59,23.40
2015,08,22,12,00,23.40
2015,08,22,12,01,23.40
2015,08,22,12,02,23.50
2015,08,22,12,03,23.60
2015,08,22,12,04,23.70
2015,08,22,12,05,23.80
2015,08,22,12,06,23.90
2015,08,22,12,07,23.90
2015,08,22,12,08,23.90
2015,08,22,12,09,23.90
2015,08,22,12,10,24.00
2015,08,22,12,11,24.10
2015,08,22,12,12,24.10
2015,08,22,12,13,24.10
2015,08,22,12,14,24.10
2015,08,22,12,15,24.10
2015,08,22,12,16,24.10
2015,08,22,12,17,24.10
2015,08,22,12,18,24.10
2015,08,22,12,19,24.10
2015,08,22,12,20,24.20
2015,08,22,12,21,24.20
2015,08,22,12,22,24.30
2015,08,22,12,23,24.30
2015,08,22,12,24,24.40
2015,08,22,12,25,24.30
2015,08,22,12,26,24.30
2015,08,22,12,27,24.20
2015,08,22,12,28,24.20
2015,08,22,12,29,24.20
2015,08,22,12,30,24.30
2015,08,22,12,31,24.20
2015,08,22,12,32,24.20
2015,08,22,12,33,24.30
2015,08,22,12,34,24.30
2015,08,22,12,35,24.40
2015,08,22,12,36,24.50
2015,08,22,12,37,24.60
2015,08,22,12,38,24.80
2015,08,22,12,39,24.90
2015,08,22,12,40,25.00
2015,08,22,12,41,25.10
2015,08,22,12,42,25.30
2015,08,22,12,43,25.40
2015,08,22,12,44,25.60
2015,08,22,12,45,25.80
2015,08,22,12,46,26.00
2015,08,22,12,47,26.10
2015,08,22,12,48,26.20
2015,08,22,12,49,26.20
2015,08,22,12,50,26.20
2015,08,22,12,51,26.20
2015,08,22,12,52,26.20
2015,08,22,12,53,26.20
2015,08,22,12,54,26.20
2015,08,22,12,55,26.10
2015,08,22,12,56,26.10
2015,08,22,12,57,26.20
2015,08,22,12,58,26.20
2015,08,22,12,59,26.20
2015,08,22,13,00,26.20
2015,08,22,13,01,26.20
2015,08,22,13,02,26.20
2015,08,22,13,03,26.10
2015,08,22,13,04,26.10
2015,08,22,13,05,26.10
2015,08,22,13,06,26.10
2015,08,22,13,07,26.00
2015,08,22,13,08,25.90
2015,08,22,13,09,25.90
2015,08,22,13,10,25.90
2015,08,22,13,11,25.80
2015,08,22,13,12,25.80
2015,08,22,13,13,25.90
2015,08,22,13,14,25.90
2015,08,22,13,15,25.90
2015,08,22,13,16,26.00
2015,08,22,13,17,26.00
2015,08,22,13,18,26.10
2015,08,22,13,19,26.10
2015,08,22,13,20,26.10
2015,08,22,13,21,26.10
2015,08,22,13,22,26.20
2015,08,22,13,23,26.20
2015,08,22,13,24,26.20
2015,08,22,13,25,26.20
2015,08,22,13,26,26.20
2015,08,22,13,27,26.10
2015,08,22,13,28,26.10
2015,08,22,13,29,26.00
2015,08,22,13,30,26.00
2015,08,22,13,31,26.00
2015,08,22,13,32,25.90
2015,08,22,13,33,26.00
2015,08,22,13,34,26.00
2015,08,22,13,35,26.00
2015,08,22,13,36,26.00
2015,08,22,13,37,26.00
2015,08,22,13,38,26.10
2015,08,22,13,39,26.10
2015,08,22,13,40,26.20
2015,08,22,13,41,26.30
2015,08,22,13,42,26.40
2015,08,22,13,43,26.40
2015,08,22,13,44,26.50
2015,08,22,13,45,26.50
2015,08,22,13,46,26.50
2015,08,22,13,47,26.50
2015,08,22,13,48,26.50
2015,08,22,13,49,26.60
2015,08,22,13,50,26.60
2015,08,22,13,51,26.70
2015,08,22,13,52,26.70
2015,08,22,13,53,26.80
2015,08,22,13,54,26.70
2015,08,22,13,55,26.70
2015,08,22,13,56,26.70
2015,08,22,13,57,26.70
2015,08,22,13,58,26.70
2015,08,22,13,59,26.60
2015,08,22,14,00,26.60
2015,08,22,14,01,26.50
2015,08,22,14,02,26.50
2015,08,22,14,03,26.40
2015,08,22,14,04,26.40
2015,08,22,14,05,26.40
2015,08,22,14,06,26.30
2015,08,22,14,07,26.20
2015,08,22,14,08,26.10
2015,08,22,14,09,26.00
2015,08,22,14,10,25.90
2015,08,22,14,11,25.80
2015,08,22,14,12,25.80
2015,08,22,14,13,25.70
2015,08,22,14,14,25.70
2015,08,22,14,15,25.60
2015,08,22,14,16,25.60
2015,08,22,14,17,25.60
2015,08,22,14,18,25.60
2015,08,22,14,19,25.60
2015,08,22,14,20,25.60
2015,08,22,14,21,25.60
2015,08,22,14,22,25.70
2015,08,22,14,23,25.70
2015,08,22,14,24,25.70
2015,08,22,14,25,25.70
2015,08,22,14,26,25.80
2015,08,22,14,27,25.80
2015,08,22,14,28,25.90
2015,08,22,14,29,25.90
2015,08,22,14,30,25.90
2015,08,22,14,31,25.90
2015,08,22,14,32,25.90
2015,08,22,14,33,25.80
2015,08,22,14,34,25.80
2015,08,22,14,35,25.80
2015,08,22,14,36,25.80
2015,08,22,14,37,25.70
2015,08,22,14,38,25.70
2015,08,22,14,39,25.80
2015,08,22,14,40,25.80
2015,08,22,14,41,25.80
2015,08,22,14,42,25.80
2015,08,22,14,43,25.80
2015,08,22,14,44,25.80
2015,08,22,14,45,25.80
2015,08,22,14,46,25.80
2015,08,22,14,47,25.80
2015,08,22,14,48,25.90
2015,08,22,14,49,25.90
2015,08,22,14,50,25.90
2015,08,22,14,51,26.00
2015,08,22,14,52,26.00
2015,08,22,14,53,26.00
2015,08,22,14,54,26.00
2015,08,22,14,55,26.10
2015,08,22,14,56,26.10
2015,08,22,14,57,26.10
2015,08,22,14,58,26.10
2015,08,22,14,59,26.10
2015,08,22,15,00,26.10
2015,08,22,15,01,26.10
2015,08,22,15,02,26.20
2015,08,22,15,03,26.30
2015,08,22,15,04,26.20
2015,08,22,15,05,26.20
2015,08,22,15,06,26.20
2015,08,22,15,07,26.10
2015,08,22,15,08,26.00
2015,08,22,15,09,26.00
2015,08,22,15,10,25.90
2015,08,22,15,11,25.90
2015,08,22,15,12,25.80
2015,08,22,15,13,25.80
2015,08,22,15,14,25.80
2015,08,22,15,15,25.70
2015,08,22,15,16,25.60
2015,08,22,15,17,25.60
2015,08,22,15,18,25.60
2015,08,22,15,19,25.60
2015,08,22,15,20,25.60
2015,08,22,15,21,25.60
2015,08,22,15,22,25.50
2015,08,22,15,23,25.40
2015,08,22,15,24,25.50
2015,08,22,15,25,25.40
2015,08,22,15,26,25.40
2015,08,22,15,27,25.40
2015,08,22,15,28,25.40
2015,08,22,15,29,25.40
2015,08,22,15,30,25.40
2015,08,22,15,31,25.50
2015,08,22,15,32,25.60
2015,08,22,15,33,25.70
2015,08,22,15,34,25.80
2015,08,22,15,35,25.90
2015,08,22,15,36,25.90
2015,08,22,15,37,25.90
2015,08,22,15,38,25.90
2015,08,22,15,39,25.90
2015,08,22,15,40,25.90
2015,08,22,15,41,26.00
2015,08,22,15,42,26.00
2015,08,22,15,43,25.90
2015,08,22,15,44,25.90
2015,08,22,15,45,25.90
2015,08,22,15,46,25.90
2015,08,22,15,47,25.90
2015,08,22,15,48,25.90
2015,08,22,15,49,25.90
2015,08,22,15,50,25.90
2015,08,22,15,51,26.00
2015,08,22,15,52,26.10
2015,08,22,15,53,26.20
2015,08,22,15,54,26.20
2015,08,22,15,55,26.20
2015,08,22,15,56,26.20
2015,08,22,15,57,26.20
2015,08,22,15,58,26.20
2015,08,22,15,59,26.20
2015,08,22,16,00,26.20
2015,08,22,16,01,26.20
2015,08,22,16,02,26.20
2015,08,22,16,03,26.10
2015,08,22,16,04,26.10
2015,08,22,16,05,26.10
2015,08,22,16,06,26.10
2015,08,22,16,07,26.10
2015,08,22,16,08,26.20
2015,08,22,16,09,26.20
2015,08,22,16,10,26.10
2015,08,22,16,11,26.00
2015,08,22,16,12,26.00
2015,08,22,16,13,25.90
2015,08,22,16,14,25.90
2015,08,22,16,15,25.90
2015,08,22,16,16,25.80
2015,08,22,16,17,25.80
2015,08,22,16,18,25.70
2015,08,22,16,19,25.70
2015,08,22,16,20,25.70
2015,08,22,16,21,25.70
2015,08,22,16,22,25.70
2015,08,22,16,23,25.70
2015,08,22,16,24,25.70
2015,08,22,16,25,25.70
2015,08,22,16,26,25.70
2015,08,22,16,27,25.70
2015,08,22,16,28,25.60
2015,08,22,16,29,25.60
2015,08,22,16,30,25.60
2015,08,22,16,31,25.50
2015,08,22,16,32,25.50
2015,08,22,16,33,25.50
2015,08,22,16,34,25.50
2015,08,22,16,35,25.40
2015,08,22,16,36,25.40
2015,08,22,16,37,25.40
2015,08,22,16,38,25.40
2015,08,22,16,39,25.50
2015,08,22,16,40,25.50
2015,08,22,16,41,25.40
2015,08,22,16,42,25.40
2015,08,22,16,43,25.40
2015,08,22,16,44,25.40
2015,08,22,16,45,25.50
2015,08,22,16,46,25.60
2015,08,22,16,47,25.60
2015,08,22,16,48,25.60
2015,08,22,16,49,25.60
2015,08,22,16,50,25.70
2015,08,22,16,51,25.70
2015,08,22,16,52,25.70
2015,08,22,16,53,25.70
2015,08,22,16,54,25.70
2015,08,22,16,55,25.70
2015,08,22,16,56,25.60
2015,08,22,16,57,25.60
2015,08,22,16,58,25.60
2015,08,22,16,59,25.60
2015,08,22,17,00,25.60
2015,08,22,17,01,25.60
2015,08,22,17,02,25.60
2015,08,22,17,03,25.50
2015,08,22,17,04,25.50
2015,08,22,17,05,25.50
2015,08,22,17,06,25.60
2015,08,22,17,07,25.60
2015,08,22,17,08,25.60
2015,08,22,17,09,25.60
2015,08,22,17,10,25.50
2015,08,22,17,11,25.50
2015,08,22,17,12,25.50
2015,08,22,17,13,25.50
2015,08,22,17,14,25.40
2015,08,22,17,15,25.40
2015,08,22,17,16,25.50
2015,08,22,17,17,25.50
2015,08,22,17,18,25.60
2015,08,22,17,19,25.70